TimeMST,TemperatureF,Dew PointF,Humidity,Sea Level PressureIn,VisibilityMPH,Wind Direction,Wind SpeedMPH,Gust SpeedMPH,PrecipitationIn,Events,Conditions,WindDirDegrees,DateUTC
12:15 AM,47.3,20.1,34,30.11,10.0,South,8.1,-,N/A,,Clear,190,2012-12-01 07:15:00
12:35 AM,48.0,20.1,33,30.10,10.0,SSE,10.4,16.1,N/A,,Scattered Clouds,150,2012-12-01 07:35:00
12:55 AM,48.4,19.8,32,30.09,10.0,South,8.1,-,N/A,,Scattered Clouds,170,2012-12-01 07:55:00
1:15 AM,47.8,19.2,32,30.08,10.0,South,12.7,-,N/A,,Clear,190,2012-12-01 08:15:00
1:35 AM,46.9,19.4,34,30.07,10.0,South,9.2,-,N/A,,Clear,190,2012-12-01 08:35:00
1:55 AM,47.3,19.0,33,30.08,10.0,SSW,8.1,-,N/A,,Clear,200,2012-12-01 08:55:00
2:35 AM,48.6,18.3,30,30.07,10.0,South,9.2,25.3,N/A,,Clear,170,2012-12-01 09:35:00
2:55 AM,48.2,18.3,31,30.08,10.0,SSE,13.8,20.7,N/A,,Clear,150,2012-12-01 09:55:00
3:15 AM,47.7,18.1,31,30.11,10.0,South,12.7,21.9,N/A,,Clear,170,2012-12-01 10:15:00
3:35 AM,48.6,18.3,30,30.11,10.0,SW,12.7,25.3,N/A,,Scattered Clouds,220,2012-12-01 10:35:00
3:55 AM,47.7,19.0,32,30.10,10.0,WSW,13.8,25.3,N/A,,Clear,240,2012-12-01 10:55:00
4:15 AM,47.1,19.4,33,30.10,10.0,SW,11.5,25.3,N/A,,Clear,220,2012-12-01 11:15:00
4:35 AM,46.0,19.8,35,30.10,10.0,SW,18.4,23.0,N/A,,Clear,230,2012-12-01 11:35:00
4:55 AM,46.8,20.3,35,30.09,10.0,WSW,16.1,32.2,N/A,,Clear,240,2012-12-01 11:55:00
5:15 AM,46.2,20.8,37,30.11,10.0,WSW,21.9,31.1,N/A,,Clear,250,2012-12-01 12:15:00
5:35 AM,46.4,21.0,37,30.13,10.0,SW,13.8,27.6,N/A,,Clear,230,2012-12-01 12:35:00
5:55 AM,46.4,21.2,37,30.14,10.0,WSW,12.7,23.0,N/A,,Clear,250,2012-12-01 12:55:00
6:15 AM,46.4,21.6,37,30.15,10.0,WSW,17.3,25.3,N/A,,Clear,240,2012-12-01 13:15:00
6:35 AM,45.7,21.6,38,30.15,10.0,WSW,15.0,23.0,N/A,,Clear,240,2012-12-01 13:35:00
6:55 AM,46.2,21.2,37,30.16,10.0,WSW,16.1,29.9,N/A,,Clear,240,2012-12-01 13:55:00
7:15 AM,45.5,21.7,39,30.16,10.0,SW,16.1,24.2,N/A,,Clear,230,2012-12-01 14:15:00
7:35 AM,46.2,22.1,39,30.17,10.0,WSW,19.6,29.9,N/A,,Clear,240,2012-12-01 14:35:00
7:55 AM,46.9,22.5,38,30.17,10.0,SW,21.9,29.9,N/A,,Clear,230,2012-12-01 14:55:00
8:15 AM,47.8,22.8,37,30.17,10.0,WSW,19.6,31.1,N/A,,Clear,240,2012-12-01 15:15:00
8:35 AM,49.1,22.5,35,30.17,10.0,SW,17.3,27.6,N/A,,Clear,230,2012-12-01 15:35:00
8:55 AM,50.2,22.1,33,30.18,10.0,SW,17.3,28.8,N/A,,Clear,230,2012-12-01 15:55:00
9:15 AM,50.9,22.6,33,30.19,10.0,WSW,21.9,33.4,N/A,,Clear,240,2012-12-01 16:15:00
9:35 AM,51.8,22.1,31,30.19,10.0,WSW,20.7,29.9,N/A,,Clear,240,2012-12-01 16:35:00
9:55 AM,52.7,21.7,30,30.19,10.0,SW,21.9,29.9,N/A,,Clear,230,2012-12-01 16:55:00
10:15 AM,52.5,22.1,31,30.19,10.0,SW,15.0,26.5,N/A,,Clear,220,2012-12-01 17:15:00
10:35 AM,53.8,21.2,28,30.19,10.0,SW,18.4,27.6,N/A,,Clear,220,2012-12-01 17:35:00
10:55 AM,54.7,20.8,27,30.18,10.0,SW,15.0,29.9,N/A,,Clear,220,2012-12-01 17:55:00
11:15 AM,55.6,21.6,27,30.17,10.0,SW,25.3,31.1,N/A,,Clear,230,2012-12-01 18:15:00
11:35 AM,56.7,19.6,24,30.17,10.0,SW,20.7,26.5,N/A,,Clear,230,2012-12-01 18:35:00
11:55 AM,56.8,19.2,23,30.15,10.0,SW,19.6,28.8,N/A,,Clear,230,2012-12-01 18:55:00
12:15 PM,57.9,19.0,22,30.15,10.0,WSW,15.0,26.5,N/A,,Clear,250,2012-12-01 19:15:00
12:35 PM,57.7,19.0,22,30.14,10.0,SW,19.6,27.6,N/A,,Clear,230,2012-12-01 19:35:00
12:55 PM,58.1,19.0,22,30.14,10.0,WSW,24.2,29.9,N/A,,Clear,240,2012-12-01 19:55:00
1:15 PM,57.9,18.7,22,30.13,10.0,SW,21.9,28.8,N/A,,Clear,220,2012-12-01 20:15:00
1:35 PM,57.9,16.0,19,30.12,10.0,SSW,13.8,29.9,N/A,,Clear,210,2012-12-01 20:35:00
1:55 PM,58.5,16.2,19,30.13,10.0,SW,18.4,28.8,N/A,,Clear,220,2012-12-01 20:55:00
2:15 PM,58.6,15.3,18,30.13,10.0,SW,18.4,26.5,N/A,,Clear,230,2012-12-01 21:15:00
2:35 PM,58.3,15.1,18,30.13,10.0,WSW,17.3,32.2,N/A,,Clear,240,2012-12-01 21:35:00
2:55 PM,57.0,14.7,19,30.14,10.0,WSW,17.3,24.2,N/A,,Clear,250,2012-12-01 21:55:00
3:15 PM,57.0,14.9,19,30.14,10.0,WSW,15.0,26.5,N/A,,Clear,240,2012-12-01 22:15:00
3:35 PM,56.3,14.2,19,30.15,10.0,SW,16.1,25.3,N/A,,Clear,230,2012-12-01 22:35:00
3:55 PM,55.4,13.3,19,30.15,10.0,SW,18.4,26.5,N/A,,Clear,220,2012-12-01 22:55:00
4:15 PM,53.8,13.1,20,30.15,10.0,WSW,16.1,24.2,N/A,,Clear,240,2012-12-01 23:15:00
4:35 PM,52.7,12.9,21,30.17,10.0,WSW,13.8,-,N/A,,Clear,240,2012-12-01 23:35:00
4:55 PM,51.8,11.1,20,30.17,10.0,WSW,13.8,19.6,N/A,,Clear,240,2012-12-01 23:55:00
5:15 PM,51.1,8.6,18,30.17,10.0,SW,15.0,19.6,N/A,,Clear,230,2012-12-02 00:15:00
5:35 PM,51.3,7.3,17,30.17,10.0,SW,15.0,19.6,N/A,,Clear,230,2012-12-02 00:35:00
5:55 PM,50.9,8.4,18,30.17,10.0,SW,13.8,20.7,N/A,,Clear,230,2012-12-02 00:55:00
6:15 PM,50.7,10.8,20,30.18,10.0,SW,16.1,21.9,N/A,,Clear,220,2012-12-02 01:15:00
6:35 PM,50.4,10.9,21,30.19,10.0,SW,17.3,20.7,N/A,,Clear,230,2012-12-02 01:35:00
6:55 PM,50.0,13.3,23,30.20,10.0,SW,12.7,21.9,N/A,,Clear,230,2012-12-02 01:55:00
7:15 PM,50.2,14.4,24,30.21,10.0,WSW,4.6,12.7,N/A,,Clear,240,2012-12-02 02:15:00
7:55 PM,48.4,16.0,27,30.20,10.0,SW,12.7,17.3,N/A,,Clear,230,2012-12-02 02:55:00
8:15 PM,47.8,16.5,29,30.20,10.0,WSW,8.1,-,N/A,,Clear,240,2012-12-02 03:15:00
8:35 PM,47.3,16.5,29,30.20,10.0,SW,8.1,-,N/A,,Clear,220,2012-12-02 03:35:00
8:55 PM,47.5,16.0,28,30.22,10.0,WSW,5.8,-,N/A,,Clear,240,2012-12-02 03:55:00
9:15 PM,46.6,15.8,29,30.22,10.0,SSW,4.6,-,N/A,,Clear,210,2012-12-02 04:15:00
9:35 PM,44.6,15.8,31,30.22,10.0,WSW,5.8,-,N/A,,Clear,250,2012-12-02 04:35:00
9:55 PM,46.6,16.7,30,30.23,10.0,SW,8.1,-,N/A,,Clear,230,2012-12-02 04:55:00
10:15 PM,45.1,16.7,32,30.23,10.0,West,6.9,-,N/A,,Clear,260,2012-12-02 05:15:00
10:35 PM,45.7,16.9,32,30.23,10.0,SSW,11.5,-,N/A,,Clear,210,2012-12-02 05:35:00
10:55 PM,46.4,17.4,31,30.24,10.0,WSW,13.8,-,N/A,,Clear,240,2012-12-02 05:55:00
11:15 PM,45.1,18.1,34,30.24,10.0,West,9.2,-,N/A,,Clear,270,2012-12-02 06:15:00
11:35 PM,43.7,19.0,37,30.23,10.0,WSW,5.8,-,N/A,,Clear,250,2012-12-02 06:35:00
11:55 PM,42.3,20.1,41,30.23,10.0,West,11.5,-,N/A,,Clear,280,2012-12-02 06:55:00